[[{"header":{"parameterUnit":"m.s-1","parameterCategory":1,"la1":30.2991,"la2":30.254,"lo1":-89.0895,"lo2":-89.0444,"dy":0.0017,"dx":0.0017,"nx":28,"ny":28,"refTime":"2023-08-25T21:00:00:Z","depth":0,"parameterNumber":2,"parameterNumberName":"U-component_of_WINDS"},"data":[0,0,0,0,0,0,0,0,0,0,0,0,0,0,0,0,0,0,0,0,0,0,0,0,0,0,0,0,0,0,0,0,0,0,0,0,0,0,0,0,0,0,0,0,0,0,0,0,0,0,0,0,0,0,0,0,0,0,3.0153,3.0154,0,3.0201,3.0202,3.0202,3.0151,3.0149,3.0147,3.0145,3.0193,3.0196,3.0199,0,0,0,0,0,0,0,0,0,0,0,0,0,3.0017,3.002,3.0153,3.0154,3.0154,3.0201,3.0202,3.0202,3.0151,3.0149,3.0146,3.0144,3.0192,3.0195,3.0199,0,0,0,0,0,0,0,0,0,0,0,0,0,3.0072,3.0021,3.0153,3.0135,3.0133,3.0201,3.0202,3.0203,3.0152,3.0149,3.0146,3.0143,3.019,3.0195,3.02,3.0287,0,0,3.0214,3.0216,0,0,0,0,0,0,0,0,3.0069,3.0077,3.0137,3.0136,3.0135,3.0167,3.0171,3.0231,3.0152,3.0145,3.0145,3.0141,3.0186,3.0191,3.0207,3.029,3.0292,3.0214,3.0217,3.0219,3.022,0,0,0,0,0,0,0,3.0065,3.0075,3.0172,3.0138,3.0136,3.0124,3.0128,3.0182,3.0181,3.0145,3.0141,3.0148,3.0185,3.0202,3.0207,3.0292,3.0214,3.0218,3.0221,3.0223,3.0452,3.0455,0,0,0,0,0,0,3.0064,3.0072,3.0171,3.0174,3.0094,3.0129,3.0134,3.016,3.0181,3.0181,3.015,3.0145,3.0196,3.0202,3.0209,3.0314,3.0219,3.0223,3.0226,3.0449,3.0453,3.0456,0,0,0,0,0,0,3.0061,3.0073,3.0169,3.0122,3.0133,3.0134,3.0164,3.0162,3.0179,3.0185,3.0184,3.0168,3.0194,3.0202,3.0269,3.0315,3.0225,3.023,3.0445,3.045,3.0454,3.0525,0,0,0,0,0,0,3.0057,3.0072,3.0105,3.0123,3.0136,3.0228,3.0167,3.0165,3.0187,3.0181,3.0201,3.0201,3.0192,3.0262,3.0273,3.032,3.0233,3.0441,3.0447,3.0453,3.0519,3.0532,3.0543,0,0,0,0,0,3.0053,3.0123,3.0107,3.012,3.0177,3.0231,3.0238,3.0226,3.0191,3.0225,3.0229,3.0201,3.0308,3.0269,3.0282,3.033,3.0438,3.0445,3.0452,3.0513,3.0529,3.0543,0,0,0,0,0,0,3.011,3.0125,3.0108,3.0186,3.0208,3.0222,3.0264,3.0243,3.0275,3.0268,3.0251,3.0256,3.0327,3.0335,3.0291,3.0417,3.0367,3.0378,3.0409,3.0425,3.0437,3.0433,3.0237,0,0,0,0,0,3.0132,3.0174,3.0184,3.0252,3.0264,3.0263,3.0285,3.0274,3.0296,3.0305,3.0313,3.0335,3.0374,3.04,3.0436,3.052,3.0524,3.056,3.0572,3.0582,3.0591,3.0637,3.0654,3.0481,3.048,3.048,0,0,3.0177,3.019,3.0217,3.0264,3.028,3.0324,3.027,3.0319,3.0352,3.0312,3.0375,3.0383,3.0406,3.0483,3.0517,3.0492,3.064,3.0591,3.0599,3.0603,3.0647,3.0663,3.0678,3.0486,3.0485,3.0484,0,0,3.0282,3.0296,3.0355,3.0372,3.0397,3.0395,3.041,3.0428,3.0432,3.0496,3.0467,3.0506,3.0573,3.0591,3.0609,3.0724,3.07,3.0736,3.08,3.0846,3.086,3.0872,3.0913,3.0928,3.0745,3.0745,3.0746,0,3.0334,3.04,3.0387,3.0439,3.0461,3.0428,3.0488,3.0505,3.054,3.0556,3.0528,3.0612,3.0625,3.0706,3.0735,3.075,3.0766,3.0734,3.0859,3.0871,3.0882,3.0921,3.0937,3.075,3.0749,3.0749,3.0748,0,3.0465,3.0511,3.0555,3.0591,3.0618,3.0674,3.0669,3.0698,3.0686,3.0688,3.0754,3.0769,3.0809,3.0827,3.0815,3.0907,3.0891,3.0861,3.081,3.0903,3.094,3.0955,3.0756,3.0754,3.0753,3.0752,0,0,3.0605,3.0635,3.0652,3.0668,3.0694,3.073,3.0785,3.0824,3.0849,3.0875,3.0921,3.0979,3.0953,3.0974,3.0963,3.1003,3.1095,3.0969,3.0969,3.0992,3.1199,3.1221,3.1239,3.1079,3.1082,3.1084,3.1197,0,3.0712,3.0806,3.0797,3.0888,3.0931,3.0901,3.0949,3.0971,3.0974,3.1012,3.1016,3.1058,3.1019,3.1032,3.107,3.1076,3.1136,3.1067,3.1122,3.1124,3.1117,3.1258,3.1281,3.1387,3.1211,3.1214,3.1215,0,3.0848,3.088,3.0975,3.0996,3.1014,3.1057,3.1093,3.1129,3.1153,3.1153,3.1178,3.1161,3.1217,3.1166,3.1242,3.1196,3.1218,3.1224,3.1228,3.1233,3.1175,3.1267,3.142,3.1436,3.1238,3.1236,3.1235,0,3.0942,3.1009,3.1075,3.109,3.1116,3.1147,3.1159,3.1181,3.1206,3.1237,3.1253,3.1291,3.1312,3.1342,3.1336,3.1299,3.1415,3.1363,3.1417,3.1417,3.1442,3.1441,3.1601,3.1456,3.1456,3.1456,3.1455,0,3.1062,3.1121,3.1118,3.1158,3.1224,3.1214,3.128,3.1288,3.1308,3.135,3.1326,3.1366,3.1356,3.1396,3.1392,3.1457,3.1467,3.1468,3.1467,3.1471,3.1471,3.1485,3.1477,3.146,3.1459,3.1458,3.1457,0,3.1178,3.1178,3.1248,3.1268,3.1274,3.1322,3.1339,3.1377,3.138,3.1434,3.1446,3.145,3.1496,3.1494,3.1545,3.1542,3.1623,3.1612,3.1615,3.1613,3.1667,3.1662,3.1843,3.1866,3.1706,3.1707,3.1709,0,3.1254,3.1299,3.1325,3.1351,3.1366,3.1409,3.1435,3.1427,3.1455,3.1487,3.1522,3.1566,3.1601,3.1676,3.1683,3.1723,3.1714,3.1774,3.1719,3.1723,3.1715,3.1713,3.1718,3.1785,3.1787,3.1788,3.1789,0,3.139,3.1388,3.1426,3.1466,3.1497,3.1527,3.1555,3.1578,3.1573,3.1606,3.1653,3.168,3.1734,3.1778,3.1817,3.1829,3.1809,3.1807,3.1822,3.1826,3.1826,3.1828,3.1645,3.1803,3.1801,3.18,3.18,3.1799,3.1489,3.1528,3.1553,3.1597,3.1617,3.1644,3.1682,3.169,3.1729,3.1773,3.1765,3.1819,3.1843,3.1893,3.191,3.1952,3.193,3.1951,3.1956,3.1962,3.1968,3.182,3.1958,3.1958,3.1958,3.1957,3.1957,0,3.1624,3.1639,3.168,3.172,3.1755,3.1733,3.1763,3.1794,3.1841,3.1866,3.1901,3.1956,3.2,3.2012,3.2054,3.2085,3.2077,3.2096,3.2094,3.2098,3.1985,3.1968,3.2102,3.2102,3.2102,3.2102,3.2102,3.2102,3.1699,3.1765,3.1767,3.1843,3.1857,3.191,3.1929,3.1954,3.1974,3.2037,3.2073,3.2081,3.2101,3.2145,3.2184,3.2186,3.2203,3.2226,3.2225,3.212,3.2105,3.2091,3.2076,3.223,3.223,3.2334,3.2335,3.2336]},{"header":{"parameterUnit":"m.s-1","parameterCategory":1,"la1":30.2991,"la2":30.254,"lo1":-89.0895,"lo2":-89.0444,"dy":0.0017,"dx":0.0017,"nx":28,"ny":28,"refTime":"2023-08-25T21:00:00:Z","depth":0,"parameterNumber":3,"parameterNumberName":"V-component_of_WINDS"},"data":[0,0,0,0,0,0,0,0,0,0,0,0,0,0,0,0,0,0,0,0,0,0,0,0,0,0,0,0,0,0,0,0,0,0,0,0,0,0,0,0,0,0,0,0,0,0,0,0,0,0,0,0,0,0,0,0,0,0,-2.9556,-2.9557,0,-2.9643,-2.9644,-2.9645,-2.9619,-2.9617,-2.9615,-2.9614,-2.9702,-2.9706,-2.971,0,0,0,0,0,0,0,0,0,0,0,0,0,-2.9366,-2.937,-2.9556,-2.9557,-2.9558,-2.9643,-2.9644,-2.9645,-2.9619,-2.9617,-2.9615,-2.9613,-2.9701,-2.9705,-2.971,0,0,0,0,0,0,0,0,0,0,0,0,0,-2.9451,-2.9371,-2.9555,-2.9555,-2.9556,-2.9643,-2.9644,-2.9645,-2.962,-2.9617,-2.9614,-2.9612,-2.9699,-2.9705,-2.9711,-2.9803,0,0,-2.9729,-2.9732,0,0,0,0,0,0,0,0,-2.9446,-2.9458,-2.9554,-2.9555,-2.9556,-2.9617,-2.961,-2.9698,-2.962,-2.9595,-2.9614,-2.961,-2.9676,-2.9684,-2.9706,-2.9807,-2.9811,-2.973,-2.9734,-2.9736,-2.9738,0,0,0,0,0,0,0,-2.944,-2.9454,-2.959,-2.9556,-2.9557,-2.9551,-2.956,-2.9626,-2.965,-2.9597,-2.9596,-2.9606,-2.9676,-2.97,-2.9708,-2.9812,-2.973,-2.9735,-2.9739,-2.9741,-2.9994,-2.9997,0,0,0,0,0,0,-2.9434,-2.9449,-2.9587,-2.9593,-2.9493,-2.9556,-2.9566,-2.96,-2.9649,-2.9654,-2.9609,-2.9605,-2.9691,-2.9701,-2.9711,-2.9823,-2.9736,-2.9742,-2.9745,-2.9991,-2.9995,-2.9998,0,0,0,0,0,0,-2.943,-2.9446,-2.9584,-2.9521,-2.9538,-2.9562,-2.9601,-2.9604,-2.9628,-2.9658,-2.9662,-2.9629,-2.9689,-2.9702,-2.9781,-2.9825,-2.9745,-2.975,-2.9987,-2.9992,-2.9996,-3.0046,0,0,0,0,0,0,-2.9424,-2.9445,-2.948,-2.9522,-2.9541,-2.9652,-2.9604,-2.9607,-2.9638,-2.9634,-2.9678,-2.9682,-2.9688,-2.9772,-2.9787,-2.9832,-2.9755,-2.9983,-2.9989,-2.9995,-3.004,-3.0052,-3.0061,0,0,0,0,0,-2.9418,-2.949,-2.9482,-2.9499,-2.9585,-2.9655,-2.9666,-2.9671,-2.9642,-2.9678,-2.9697,-2.9681,-2.9818,-2.978,-2.9796,-2.9844,-2.9981,-2.9988,-2.9994,-3.0036,-3.005,-3.0061,0,0,0,0,0,0,-2.9452,-2.9495,-2.9487,-2.9575,-2.9611,-2.965,-2.9695,-2.9686,-2.9731,-2.9725,-2.973,-2.974,-2.982,-2.984,-2.9797,-2.9937,-2.9895,-2.9906,-2.9921,-2.9934,-2.9944,-2.9938,-2.976,0,0,0,0,0,-2.947,-2.9523,-2.9558,-2.9632,-2.9651,-2.967,-2.97,-2.9702,-2.974,-2.9755,-2.978,-2.9817,-2.9869,-2.9902,-2.9951,-3.0043,-3.0053,-3.0085,-3.0095,-3.0103,-3.0113,-3.0164,-3.0179,-3.0021,-3.0021,-3.0021,0,0,-2.9508,-2.9538,-2.9571,-2.964,-2.9668,-2.9723,-2.9683,-2.9742,-2.9783,-2.9764,-2.9839,-2.9859,-2.9901,-2.9987,-3.0026,-3.0006,-3.0158,-3.0112,-3.0119,-3.0123,-3.0172,-3.0187,-3.0201,-3.0025,-3.0025,-3.0024,0,0,-2.9604,-2.9632,-2.9698,-2.9727,-2.9771,-2.9784,-2.9799,-2.984,-2.9853,-2.9929,-2.9916,-2.9964,-3.0053,-3.0084,-3.0111,-3.0221,-3.0208,-3.0236,-3.0291,-3.0341,-3.0353,-3.0364,-3.0404,-3.0418,-3.0245,-3.0245,-3.0245,0,-2.9645,-2.9727,-2.9732,-2.9793,-2.9824,-2.981,-2.9877,-2.9905,-2.9963,-2.9985,-2.9961,-3.0073,-3.01,-3.0194,-3.022,-3.0243,-3.0261,-3.0231,-3.0351,-3.0362,-3.0373,-3.0411,-3.0426,-3.0249,-3.0248,-3.0248,-3.0248,0,-2.9776,-2.9833,-2.9881,-2.9938,-2.9974,-3.0037,-3.0052,-3.0089,-3.0087,-3.0102,-3.018,-3.0213,-3.0269,-3.0291,-3.0289,-3.0385,-3.0371,-3.035,-3.0308,-3.0391,-3.0427,-3.0441,-3.0253,-3.0252,-3.0251,-3.025,0,0,-2.9896,-2.9956,-2.9973,-2.9999,-3.0047,-3.0092,-3.0155,-3.021,-3.0241,-3.0282,-3.0335,-3.0411,-3.0392,-3.0423,-3.0425,-3.0469,-3.0555,-3.0442,-3.0444,-3.0463,-3.0663,-3.0679,-3.0696,-3.0547,-3.055,-3.0552,-3.066,0,-2.9997,-3.0108,-3.0115,-3.0216,-3.027,-3.0257,-3.0313,-3.0348,-3.0364,-3.0412,-3.0429,-3.0483,-3.0454,-3.0473,-3.0515,-3.0536,-3.0596,-3.0528,-3.0597,-3.06,-3.0588,-3.0715,-3.0732,-3.0832,-3.0674,-3.0676,-3.0678,0,-3.013,-3.0175,-3.0282,-3.0323,-3.0346,-3.0395,-3.0447,-3.0493,-3.0533,-3.0542,-3.0577,-3.0574,-3.0639,-3.0595,-3.0685,-3.0639,-3.0668,-3.0683,-3.0687,-3.0693,-3.0644,-3.0726,-3.0864,-3.0879,-3.07,-3.0698,-3.0697,0,-3.0208,-3.0295,-3.0371,-3.0393,-3.0443,-3.0479,-3.0501,-3.0539,-3.0572,-3.0617,-3.0639,-3.0691,-3.072,-3.076,-3.0771,-3.0738,-3.0862,-3.0818,-3.0871,-3.0871,-3.0898,-3.0896,-3.1043,-3.0916,-3.0915,-3.0915,-3.0915,0,-3.032,-3.0386,-3.0406,-3.0453,-3.0527,-3.0534,-3.0607,-3.0627,-3.0661,-3.0711,-3.0704,-3.0751,-3.0762,-3.0812,-3.0821,-3.0895,-3.0908,-3.0917,-3.0919,-3.0918,-3.0917,-3.0937,-3.0931,-3.0919,-3.0918,-3.0918,-3.0917,0,-3.0419,-3.0436,-3.0517,-3.0559,-3.0571,-3.0623,-3.0658,-3.0703,-3.0719,-3.0783,-3.0798,-3.0822,-3.0881,-3.0895,-3.0965,-3.0971,-3.1059,-3.1053,-3.1045,-3.1045,-3.1097,-3.1093,-3.1263,-3.1286,-3.1143,-3.1144,-3.1145,0,-3.049,-3.0541,-3.0588,-3.0621,-3.0645,-3.0699,-3.0733,-3.0743,-3.0779,-3.0829,-3.0868,-3.0926,-3.0972,-3.1066,-3.109,-3.1144,-3.114,-3.1196,-3.1148,-3.1146,-3.1142,-3.1139,-3.1145,-3.1205,-3.1207,-3.1208,-3.1209,0,-3.0614,-3.062,-3.067,-3.0723,-3.0764,-3.0806,-3.0846,-3.0874,-3.0889,-3.093,-3.099,-3.1026,-3.1098,-3.1155,-3.1209,-3.1233,-3.1224,-3.1224,-3.1239,-3.1239,-3.1233,-3.1238,-3.1071,-3.122,-3.1219,-3.1218,-3.1218,-3.1217,-3.0702,-3.0747,-3.0788,-3.0843,-3.0875,-3.0913,-3.0957,-3.0979,-3.1029,-3.1088,-3.1091,-3.1156,-3.1196,-3.1268,-3.1295,-3.1347,-3.133,-3.1351,-3.1357,-3.1362,-3.1367,-3.1225,-3.1356,-3.1356,-3.1356,-3.1355,-3.1355,0,-3.0827,-3.0853,-3.0904,-3.0961,-3.1005,-3.0993,-3.1037,-3.1075,-3.1133,-3.1171,-3.1218,-3.1287,-3.1343,-3.1372,-3.1428,-3.1464,-3.1461,-3.1478,-3.1476,-3.1482,-3.1379,-3.1361,-3.1479,-3.1479,-3.1479,-3.1479,-3.1479,-3.1479,-3.0897,-3.0973,-3.0984,-3.1075,-3.11,-3.1164,-3.1191,-3.1226,-3.1257,-3.1335,-3.1382,-3.14,-3.1435,-3.1494,-3.1545,-3.1552,-3.1573,-3.1593,-3.1598,-3.1501,-3.1489,-3.1477,-3.1459,-3.1597,-3.1597,-3.1696,-3.1697,-3.1698]}]]